Waarnemingen

Advertentie
Mijn weer
Gourette, Frankrijk (7775): temperatuur & dauwpunt: 14.10.2018 04:00:00 - 20.10.2018 04:00:00 (CEST)Gourette, Frankrijk (7775): windsnelheid & windstoten: 14.10.2018 04:00:00 - 20.10.2018 04:00:00 (CEST)Gourette, Frankrijk (7775): windrichting: 14.10.2018 04:00:00 - 20.10.2018 04:00:00 (CEST)Gourette, Frankrijk (7775): luchtdruk: 14.10.2018 04:00:00 - 20.10.2018 04:00:00 (CEST)Gourette, Frankrijk (7775): zicht: 14.10.2018 04:00:00 - 20.10.2018 04:00:00 (CEST)Gourette, Frankrijk (7775): neerslag: 14.10.2018 04:00:00 - 20.10.2018 04:00:00 (CEST)
Datum & Tijd tt [°C] td [°C] ff [km/u] ff [kn] fx [km/u] fx [kn] dd ppp [hPa] vv [km] rr [mm]
20.10.2018 04:00:00 18,7 16,7 16 9 19 10 NNW 1019,2 - 0,0
20.10.2018 03:00:00 17,9 16,6 10 5 18 10 N 1019,3 - 0,0
20.10.2018 02:00:00 19,1 15,6 12 6 18 10 N 1019,0 - 0,0
20.10.2018 01:00:00 19,0 16,2 4 2 10 6 WNW 1018,7 - 0,0
20.10.2018 00:00:00 18,7 15,9 7 4 16 8 NNW 1018,6 - 0,0
19.10.2018 23:00:00 19,0 16,2 13 7 16 9 N 1018,5 - 0,0
19.10.2018 22:00:00 18,2 17,4 3 2 16 9 W 1018,2 - 0,0
19.10.2018 21:00:00 18,3 17,5 13 7 19 10 ZZW 1017,9 - 0,0
19.10.2018 20:00:00 18,7 17,5 13 7 16 9 ZZW 1017,6 - 0,0
19.10.2018 19:00:00 20,4 18,3 6 3 8 4 Z 1016,9 - 0,0
19.10.2018 18:00:00 21,1 18,5 5 3 9 5 ZZO 1016,3 - 0,0
19.10.2018 17:00:00 22,9 18,4 5 3 13 7 O 1016,1 20 0,0
19.10.2018 16:00:00 23,5 19,4 7 4 14 8 OZO 1016,0 - 0,0
19.10.2018 15:00:00 23,4 19,5 9 5 18 10 OZO 1015,7 - 0,0
19.10.2018 14:00:00 23,7 19,8 11 6 18 10 ONO 1015,9 - 0,0
19.10.2018 13:00:00 23,8 19,1 10 5 17 9 ONO 1016,4 - 0,0
19.10.2018 12:00:00 23,9 18,8 14 7 21 11 ONO 1016,5 - 0,0
19.10.2018 11:00:00 24,5 19,6 13 7 18 10 NO 1016,4 - 0,0
19.10.2018 10:00:00 21,7 17,9 10 5 14 7 NW 1016,3 - 0,0
19.10.2018 09:00:00 20,3 16,9 11 6 16 9 NNW 1015,9 - 0,0
19.10.2018 08:00:00 18,7 15,0 13 7 16 9 NNW 1015,2 20 0,0
19.10.2018 07:00:00 19,2 15,1 11 6 18 10 NNW 1014,8 - 0,0
19.10.2018 06:00:00 19,1 14,8 13 7 19 11 N 1014,6 - 0,0
19.10.2018 05:00:00 18,5 14,8 17 9 23 12 NNW 1014,4 - 0,0
19.10.2018 04:00:00 18,8 14,9 16 9 24 13 N 1014,3 - 0,0
19.10.2018 03:00:00 18,5 14,8 17 9 22 12 N 1014,1 - 0,0
19.10.2018 02:00:00 18,3 14,4 14 7 18 10 N 1014,2 - 0,0
19.10.2018 01:00:00 19,2 14,7 14 8 18 10 NNW 1013,7 - 0,0
19.10.2018 00:00:00 18,7 15,0 14 8 18 10 NNW 1014,2 - 0,0
18.10.2018 23:00:00 18,8 15,7 16 9 22 12 NNW 1014,0 - 0,0
18.10.2018 22:00:00 19,3 15,8 5 3 17 9 WNW 1013,8 - 0,0
18.10.2018 21:00:00 19,0 15,5 13 7 20 11 NNW 1013,4 - 0,0
18.10.2018 20:00:00 19,2 17,2 14 8 17 9 NNW 1012,8 15 0,0
18.10.2018 19:00:00 20,0 18,0 5 3 7 4 NNW 1012,5 - 0,0
18.10.2018 18:00:00 21,7 18,3 4 2 11 6 N 1012,1 - 0,0
18.10.2018 17:00:00 22,6 18,2 7 4 17 9 ONO 1012,3 15 0,0
18.10.2018 16:00:00 22,7 18,7 13 7 19 10 ONO 1012,3 - 0,0
18.10.2018 15:00:00 24,5 17,7 9 5 16 9 N 1012,2 - 0,0
18.10.2018 14:00:00 24,5 18,2 10 5 19 10 NNO 1012,9 15 0,0
18.10.2018 13:00:00 23,0 17,9 9 5 22 12 NNO 1013,4 - 0,0
18.10.2018 12:00:00 22,9 18,4 11 6 22 12 N 1013,8 - 0,0
18.10.2018 11:00:00 22,2 18,6 10 6 17 9 NNO 1013,8 15 0,0
18.10.2018 10:00:00 21,4 18,4 11 6 18 10 N 1013,5 - 0,0
18.10.2018 09:00:00 19,5 16,3 11 6 18 10 NNW 1013,6 - 0,0
18.10.2018 08:00:00 18,7 15,4 16 8 20 11 NNW 1013,2 - 0,0
18.10.2018 07:00:00 18,6 15,1 16 8 19 10 NW 1013,1 - 0,0
18.10.2018 06:00:00 18,9 15,0 12 6 18 10 NW 1013,2 - 0,0
18.10.2018 05:00:00 18,5 15,6 15 8 17 9 NW 1013,0 12 0,0
18.10.2018 04:00:00 17,7 15,7 16 8 21 11 NNW 1013,5 - 0,0
18.10.2018 03:00:00 17,5 15,8 14 8 19 10 NNW 1013,9 - 0,0
18.10.2018 02:00:00 18,2 15,8 10 5 13 7 NNW 1014,3 - 0,0
18.10.2018 01:00:00 18,2 16,7 8 4 14 8 NNW 1014,6 - 0,0
18.10.2018 00:00:00 17,9 17,1 10 6 11 6 NNW 1014,8 - 0,6
17.10.2018 23:00:00 17,9 17,1 9 5 13 7 WZW 1015,1 - 0,2
17.10.2018 22:00:00 19,1 17,4 4 2 8 4 NNW 1015,1 - 0,0
17.10.2018 21:00:00 19,3 17,8 7 4 11 6 WNW 1014,7 - 0,0
17.10.2018 20:00:00 19,1 17,9 6 3 17 9 NNW 1014,8 - 0,0
17.10.2018 19:00:00 19,5 18,5 7 4 13 7 OZO 1014,4 - 0,0
17.10.2018 18:00:00 19,6 18,3 5 3 19 10 ZO 1014,0 - 0,0
17.10.2018 17:00:00 19,7 18,7 10 6 34 18 OZO 1014,2 - 0,0
17.10.2018 16:00:00 20,1 18,8 19 11 34 19 OZO 1014,5 - 0,0
17.10.2018 15:00:00 19,5 18,2 20 11 44 24 OZO 1014,3 - 0,0
17.10.2018 14:00:00 19,1 18,4 26 14 40 21 O 1014,3 15 2,2
17.10.2018 13:00:00 19,7 18,7 16 9 31 17 OZO 1015,0 - 0,0
17.10.2018 12:00:00 19,2 18,7 19 11 41 22 O 1015,6 - 1,0
17.10.2018 11:00:00 19,1 18,8 19 11 29 16 O 1015,3 10 1,8
17.10.2018 10:00:00 18,7 18,4 17 9 42 23 O 1015,3 - 0,0
17.10.2018 09:00:00 18,9 18,7 27 14 40 22 O 1015,2 - 3,5
17.10.2018 08:00:00 18,1 17,8 18 10 30 16 N 1015,0 6 7,5
17.10.2018 07:00:00 18,2 17,9 13 7 36 19 NO 1015,4 - 15,7
17.10.2018 06:00:00 17,8 17,3 20 11 31 17 NW 1015,1 - 14,1
17.10.2018 05:00:00 18,2 16,9 19 10 24 13 NNW 1015,1 - 1,2
17.10.2018 04:00:00 18,2 15,8 20 11 23 13 NNW 1015,3 - 0,0
17.10.2018 03:00:00 19,6 14,8 10 5 18 10 NW 1015,9 - 0,0
17.10.2018 02:00:00 18,3 15,9 16 9 19 10 NW 1016,2 - 0,0
17.10.2018 01:00:00 18,4 15,6 13 7 16 9 NNW 1016,5 - 0,0
17.10.2018 00:00:00 18,5 16,3 13 7 16 9 NNW 1016,7 - 0,0
16.10.2018 23:00:00 18,6 16,9 15 8 18 10 NW 1017,1 - 0,0
16.10.2018 22:00:00 18,7 16,8 7 4 11 6 NW 1016,9 - 0,0
16.10.2018 21:00:00 19,5 18,5 4 2 11 6 NNW 1016,6 - 0,0
16.10.2018 20:00:00 19,6 18,8 3 2 9 5 WNW 1016,6 15 0,0
16.10.2018 19:00:00 19,7 18,7 6 3 22 12 ZZO 1016,2 - 0,0
16.10.2018 18:00:00 19,8 18,8 16 9 37 20 O 1015,8 - 0,0
16.10.2018 17:00:00 19,8 18,8 31 17 49 26 O 1015,6 - 0,0
16.10.2018 16:00:00 19,6 18,8 34 18 57 31 O 1015,2 - 0,0
16.10.2018 15:00:00 19,5 19,0 34 18 55 30 O 1014,9 - 0,4
16.10.2018 14:00:00 19,4 19,1 37 20 56 31 O 1015,0 12 12,7
16.10.2018 13:00:00 19,0 18,3 16 8 24 13 NNW 1015,9 - 3,1
16.10.2018 12:00:00 18,3 17,8 13 7 17 9 NNW 1016,5 - 3,2
16.10.2018 11:00:00 17,8 17,3 7 4 25 13 N 1016,3 15 8,5
16.10.2018 10:00:00 17,6 17,0 15 8 25 14 NNW 1016,3 - 1,3
16.10.2018 09:00:00 17,4 16,8 18 10 26 14 NW 1016,1 - 3,4
16.10.2018 08:00:00 17,1 16,5 16 9 25 13 NNW 1015,8 - 1,6
16.10.2018 07:00:00 16,6 16,1 15 8 21 11 NNW 1015,9 - 11,4
16.10.2018 06:00:00 17,6 15,0 15 8 27 14 NNW 1015,3 - 1,6
16.10.2018 05:00:00 18,6 15,5 15 8 21 11 N 1015,2 - 0,0
16.10.2018 04:00:00 19,0 14,9 14 8 18 10 NNW 1015,4 - 0,0
16.10.2018 03:00:00 19,1 13,7 12 7 14 8 NNW 1016,0 - 0,0
16.10.2018 02:00:00 19,2 13,4 7 4 10 6 N 1016,3 - 0,0
16.10.2018 01:00:00 19,6 13,5 4 2 5 3 NNO 1016,5 - 0,0
16.10.2018 00:00:00 19,4 14,4 0 0 6 4 N 1016,6 - 0,0
15.10.2018 23:00:00 19,3 14,3 5 3 8 5 ZZW 1016,8 - 0,0
15.10.2018 22:00:00 19,3 15,2 8 4 10 5 ZW 1016,5 - 0,0
15.10.2018 21:00:00 19,5 15,4 7 4 9 5 W 1016,3 - 0,0
15.10.2018 20:00:00 19,3 15,6 6 3 10 6 W 1016,2 15 0,0
15.10.2018 19:00:00 19,3 15,4 8 5 10 6 WZW 1016,2 - 0,0
15.10.2018 18:00:00 20,6 15,8 5 3 15 8 ZO 1015,6 - 0,0
15.10.2018 17:00:00 20,8 15,3 8 5 15 8 OZO 1015,3 - 0,0
15.10.2018 16:00:00 22,0 16,5 8 4 19 10 OZO 1015,2 - 0,0
15.10.2018 15:00:00 22,6 16,2 10 5 20 11 OZO 1015,1 - 0,0
15.10.2018 14:00:00 21,9 16,2 9 5 15 8 ZO 1015,4 15 0,0
15.10.2018 13:00:00 23,0 15,8 8 4 18 10 ZO 1015,6 - 0,0
15.10.2018 12:00:00 22,5 16,5 11 6 18 10 ZO 1016,1 - 0,0
15.10.2018 11:00:00 23,0 15,1 9 5 15 8 ZZO 1016,0 15 0,0
15.10.2018 10:00:00 21,4 17,0 6 4 10 6 ZW 1015,8 - 0,0
15.10.2018 09:00:00 19,4 16,1 4 2 8 5 W 1015,6 - 0,0
15.10.2018 08:00:00 18,4 15,3 2 1 7 4 WZW 1015,3 15 0,0
15.10.2018 07:00:00 17,6 13,7 7 4 8 4 WZW 1015,3 - 0,0
15.10.2018 06:00:00 18,3 13,2 5 3 7 4 WZW 1015,2 - 0,0
15.10.2018 05:00:00 18,4 13,3 0 0 4 2 N 1015,2 15 0,0
15.10.2018 04:00:00 18,7 12,7 0 0 6 4 N 1015,7 - 0,0
15.10.2018 03:00:00 19,0 9,5 5 3 8 4 NNO 1015,9 - 0,0
15.10.2018 02:00:00 18,8 9,8 5 3 9 5 WZW 1016,3 - 0,0
15.10.2018 01:00:00 18,7 12,9 4 2 10 6 Z 1016,3 - 0,0
15.10.2018 00:00:00 18,1 14,2 9 5 12 6 WZW 1016,6 - 0,0
14.10.2018 23:00:00 18,3 15,2 5 3 8 4 WZW 1016,6 - 0,0
14.10.2018 22:00:00 18,6 14,3 3 2 6 4 O 1016,6 - 0,0
14.10.2018 21:00:00 18,6 15,1 5 3 10 5 ZW 1016,5 - 0,0
14.10.2018 20:00:00 18,7 14,0 5 3 9 5 ZW 1016,6 - 0,0
14.10.2018 19:00:00 18,6 15,7 6 3 10 5 WZW 1016,2 - 0,0
14.10.2018 18:00:00 20,7 16,3 5 3 14 7 ZZO 1016,0 - 0,0
14.10.2018 17:00:00 22,1 15,7 8 4 13 7 OZO 1016,0 15 0,0
14.10.2018 16:00:00 22,6 16,2 7 4 16 9 OZO 1016,3 - 0,0
14.10.2018 15:00:00 23,5 15,0 7 4 15 8 ZO 1016,6 - 0,0
14.10.2018 14:00:00 23,2 13,4 12 7 18 10 ZO 1017,2 12 0,0
14.10.2018 13:00:00 23,6 14,0 8 4 16 9 OZO 1017,9 - 0,0
14.10.2018 12:00:00 23,3 17,1 7 4 14 8 ZZO 1018,2 - 0,0
14.10.2018 11:00:00 22,2 16,5 5 3 12 7 Z 1018,5 12 0,0
14.10.2018 10:00:00 21,0 16,2 4 2 8 5 Z 1018,6 - 0,0
14.10.2018 09:00:00 18,7 15,4 6 3 8 5 W 1018,7 - 0,0
14.10.2018 08:00:00 17,5 13,0 4 2 10 6 W 1018,5 - 0,0
14.10.2018 07:00:00 17,4 12,7 9 5 12 6 NNW 1018,5 - 0,0
14.10.2018 06:00:00 17,2 12,3 10 5 12 6 NNW 1018,8 - 0,0
14.10.2018 05:00:00 17,5 12,6 7 4 13 7 NNW 1018,7 15 0,0
14.10.2018 04:00:00 17,0 11,7 12 6 14 8 NNW 1018,9 - 0,0

tt = temperatuur
td = dauwpunt
ff = windsnelheid
fx = windstoten
dd = windrichting
ppp = luchtdruk
vv = zicht
rr = neerslag

Weerstations in de omgeving